This is the latest recevied weather packets stored in our database for station/object N0NAI-13. If no packets are shown the sender has not sent any weather packets the latest 10 day(s).
| Time | Temp. | Humidity | Pressure | Rain* | Wind** | Luminosity | Snow |
|---|---|---|---|---|---|---|---|
| 1777827932 | 22.22° C | 42% | 1008.1 hPa | 0 mm | - | - | - |
| 1777827317 | 22.22° C | 43% | 1008.3 hPa | 0 mm | - | - | - |
| 1777826720 | 21.11° C | 42% | 1008.2 hPa | 0 mm | - | - | - |
| 1777826123 | 21.11° C | 43% | 1008.2 hPa | 0 mm | - | - | - |
| 1777825525 | 20.56° C | 44% | 1008.3 hPa | 0 mm | - | - | - |
| 1777824929 | 20.56° C | 45% | 1008.3 hPa | 0 mm | - | - | - |
| 1777824331 | 20.56° C | 44% | 1008.3 hPa | 0 mm | - | - | - |
| 1777823716 | 20° C | 44% | 1008.3 hPa | 0 mm | - | - | - |
| 1777823119 | 19.44° C | 45% | 1008.3 hPa | 0 mm | - | - | - |
| 1777822521 | 19.44° C | 45% | 1008.3 hPa | 0 mm | - | - | - |
| 1777821924 | 18.89° C | 45% | 1008.3 hPa | 0 mm | - | - | - |
| 1777821327 | 18.89° C | 46% | 1008.3 hPa | 0 mm | - | - | - |
| 1777820730 | 18.33° C | 45% | 1008.6 hPa | 0 mm | - | - | - |
| 1777820115 | 17.78° C | 48% | 1008.6 hPa | 0 mm | - | - | - |
| 1777819518 | 17.22° C | 48% | 1008.7 hPa | 0 mm | - | - | - |
| 1777818921 | 16.67° C | 48% | 1008.8 hPa | 0 mm | - | - | - |
| 1777818318 | 16.67° C | 49% | 1008.8 hPa | 0 mm | - | - | - |
| 1777817727 | 15.56° C | 50% | 1008.9 hPa | 0 mm | - | - | - |
| 1777817130 | 15° C | 51% | 1008.8 hPa | 0 mm | - | - | - |
| 1777816533 | 14.44° C | 51% | 1008.9 hPa | 0 mm | - | - | - |
| 1777815918 | 13.89° C | 53% | 1008.9 hPa | 0 mm | - | - | - |
| 1777815320 | 13.89° C | 52% | 1008.9 hPa | 0 mm | - | - | - |
| 1777814723 | 13.33° C | 52% | 1009 hPa | 0 mm | - | - | - |
| 1777814126 | 13.33° C | 52% | 1009.1 hPa | 0 mm | - | - | - |
| 1777813529 | 12.78° C | 52% | 1009.2 hPa | 0 mm | - | - | - |
* Rain latest hour (hover to see other rain measurements)
** Current wind speed in m/s (hover to see current wind gust speed)